Content
SEND FEEDBACK

Daily
Averages
Monthly
Summary
Canada

QUEBEC CITY, QUEBEC


Home > North America > Canada > Quebec
Elevation: 239 feet     Latitude: 46 48N     Longitude: 071 23W

WEATHER
 
SELECT A DAY
Number of Records: 194,992;   Date Range: 6/30/96 - 9/29/14
 
SHARE

PRINT THIS DATA

[ ← Previous Day ]
WEATHER ALMANAC - APRIL 8, 2013
[ Next Day → ]
[ °C ]   °F
Weather ElementAverageHighLow
Temperature38.5 °F44 °F (2:00 pm)33.8 °F (1:00 am)
Dewpoint26.5 °F35.6 °F (4:00 am)-5.8 °F (3:00 pm)
Humidity68.7 %96 % (2:00 am)13 % (3:00 pm)
Barometer27.38 in30.14 in (10:00 pm) (7:00 pm)
Wind Speed9.1 mph17.3 mph (4:00 pm)
Weather ElementAverage
Visibility21 mi
Wind DirectionSSW (212.9 °)

Weather ElementTotal
Precipitation---
Heating Degree Days26.1 (Base 65)
Averaged from 34 records on April 8, 2013
WEATHER CONDITIONS BREAKOUT
WIND DIRECTION BREAKOUT
WEATHER BY HOUR - APRIL 8, 2013
[ °C ]   °F
Local TimeTemperatureDewpointHumidityBarometerVisibilityWind DirectionWind SpeedGust SpeedPrecipitationEventsConditions
1:00 AM33.8 °F32.0 °F93 %29.81 in10.0 miCalmRainLight Rain
1:11 AM33.8 °F0.0 °F6.0 miCalmRainLight Rain
2:00 AM34.0 °F33.0 °F96 %29.81 inSW (220°)3.5 mph
2:00 AM33.8 °F32.0 °F93 %29.82 in8.0 miSW (220°)4.6 mphRainLight Rain
2:20 AM35.6 °F0.0 °F6.0 miSW (230°)10.4 mphRainLight Rain
2:38 AM35.6 °F0.0 °F6.0 miWSW (240°)11.5 mphOvercast
3:00 AM35.6 °F33.8 °F93 %29.83 in6.0 miSSW (210°)8.1 mphLight Drizzle
4:00 AM37.4 °F35.6 °F93 %29.86 in8.0 miSW (220°)10.4 mphOvercast
5:00 AM37.4 °F33.8 °F87 %29.90 in10.0 miWSW (250°)11.5 mphOvercast
5:00 AM39.0 °F35.0 °F81 %29.89 inWSW (250°)8.1 mph
6:00 AM37.4 °F33.8 °F87 %29.94 in20.0 miWSW (250°)12.7 mphOvercast
7:00 AM37.4 °F33.8 °F87 %29.98 in30.0 miWSW (240°)12.7 mphMostly Cloudy
8:00 AM40.0 °F31.0 °F62 %30.01 inNW (310°)10.4 mph
8:00 AM39.2 °F33.8 °F81 %30.03 in30.0 miWest (270°)8.1 mphMostly Cloudy
9:00 AM37.4 °F28.4 °F70 %30.05 in30.0 miNNW (330°)12.7 mphMostly Cloudy
10:00 AM37.4 °F28.4 °F70 %30.08 in30.0 miWNW (300°)10.4 mphMostly Cloudy
11:00 AM39.2 °F26.6 °F61 %30.10 in30.0 miNW (310°)8.1 mphScattered Clouds
11:00 AM40.0 °F29.0 °F53 %30.09 inNW (310°)8.1 mph
12:00 PM41.0 °F28.4 °F61 %30.12 in30.0 miWest (270°)8.1 mphPartly Cloudy
1:00 PM42.8 °F30.2 °F61 %30.13 in30.0 miWest (260°)11.5 mphPartly Cloudy
2:00 PM44.0 °F29.0 °F42 %30.09 inWSW (240°)8.1 mph
2:00 PM42.8 °F28.4 °F57 %30.12 in30.0 miSSW (210°)13.8 mphPartly Cloudy
3:00 PM42.8 °F-5.8 °F13 %30.11 in30.0 miSW (230°)16.1 mphMostly Cloudy
4:00 PM42.8 °F30.2 °F61 %30.10 in30.0 miWSW (240°)17.3 mphScattered Clouds
5:00 PM42.8 °F28.4 °F57 %30.12 in30.0 miSW (220°)17.3 mphMostly Cloudy
5:00 PM43.0 °F29.0 °F46 %30.10 inSW (230°)9.2 mph
6:00 PM42.8 °F28.4 °F57 %30.12 in30.0 miSW (220°)13.8 mphMostly Cloudy
7:00 PM41.0 °F26.6 °F57 %30.11 in30.0 miSW (220°)9.2 mphMostly Cloudy
8:00 PM38.0 °F28.0 °F57 %30.10 inSSW (210°)3.5 mph
8:00 PM39.2 °F26.6 °F61 %30.12 in30.0 miSSW (210°)3.5 mphScattered Clouds
9:00 PM37.4 °F28.4 °F70 %30.13 in15.0 miENE (70°)4.6 mphScattered Clouds
10:00 PM35.6 °F28.4 °F75 %30.14 in15.0 miEast (80°)6.9 mphMostly Cloudy
11:00 PM35.0 °F29.0 °F72 %30.13 inEast (80°)5.8 mph
11:00 PM35.6 °F28.4 °F75 %30.14 in15.0 miEast (90°)9.2 mphOvercast
Hourly data recorded from CYQB, located miles away from Quebec City, Quebec







STORIES FROM OUR PARTNERS